Preview of NWS' New Version of Forecast
This preview is not operational and should not be used for support decisions.
Latest weather observations around

Auburn-Lewiston (KLEW)

Using English Units (Switch to International System of Units)
Date/ Time (EDT) Wind (mph) Vis. (mi) Weather Sky Cond. Temp (°F) Rel. Humidity Wind Chill (°F) Heat Index (°F) Pressure Precip. (in)
Air Dwpt 6 hour Altimeter (inHg) Sea level (inHg) 1 hr 3 hr 6 hr
Max Min
May 26 03:56 WSW 10 10 Mostly Clear FEW110 70 56     61%     29.65 29.67      
May 26 02:56 6 10 Mostly Clear FEW110 71 55     57%   71 29.66 29.69      
May 26 01:56 NW 6 10 Mostly Cloudy SCT060 BKN080 73 55     53%   73 29.68 29.7     0
May 26 00:56 W 8 10 Cloudy OVC100 75 54     48%   74 29.67 29.7 0    
May 25 23:56 W 5 10 Mostly Clear FEW100 74 56     53%   74 29.68 29.7      
May 25 22:56 Calm 10 Mostly Clear FEW070 73 55     53%   73 29.68 29.7      
May 25 21:56 6 10 Clear CLR 75 54     48%   74 29.68 29.7      
May 25 20:56 W 5 8 Clear CLR 77 54     45%   77 29.67 29.7      
May 25 19:56 WSW 8 10 Clear CLR 79 53     41%   78 29.67 29.7      
May 25 18:56 W 13 10 Mostly Clear FEW070 81 53     38%   80 29.66 29.69      
May 25 17:56 W 13 10 Mostly Clear FEW080 82 54     38%   81 29.65 29.69      
May 25 16:56 W 9 10 Cloudy OVC080 82 53     37%   81 29.67 29.71      
May 25 15:56   10 Mostly Clear FEW090 85 52     32%   83 29.66 29.7      
May 25 14:56   10 Clear CLR 86 52     31%   84 29.67 29.71      
May 25 13:56 SW 10 10 Clear CLR 82 53     37%   81 29.69 29.73      
May 25 12:56 W 13 10 Clear CLR 82 52     35%   81 29.72 29.76      
May 25 11:56   10 Clear CLR 82 51     34%   81 29.73 29.77      
May 25 10:56   10 Clear CLR 81 51     35%   80 29.76 29.79      
May 25 09:56 WSW 8 10 Clear CLR 78 51     39%   77 29.77 29.81      
May 25 08:56 SW 8 10 Clear CLR 74 50     43%   73 29.79 29.83      
May 25 07:56 SW 10 10 Clear CLR 69 49     49%     29.8 29.84      
May 25 06:56 Calm 10 Clear CLR 53 49     86%     29.83 29.87      
May 25 05:56 Calm 10 Clear CLR 43 42     97%     29.83 29.88      
May 25 04:56 Calm 10 Clear CLR 43 41     93%     29.84 29.88      
May 25 03:56 Calm 10 Clear   42 41     96%     29.85 29.9      
May 25 02:56 Calm 10 Clear CLR 43 43     100%     29.88 29.93      
May 25 01:56 S 3 10 Clear CLR 42 42     100% 40   29.91 29.96      
May 25 00:56 Calm 10 Clear CLR 44 43     96%     29.95 30      
May 24 23:56 Calm 7 Clear CLR 44 43     96%     29.98 30.03      
May 24 22:56 Calm 10 Clear CLR 48 46     93%     30 30.05      
May 24 21:56 SSE 5 10 Clear CLR 50 47     89%     30.02 30.07      
May 24 20:56 SSE 6 10 Clear CLR 51 47     86%     30.03 30.08      
May 24 19:56 SSE 7 10 Clear CLR 55 48     77%     30.03 30.08      
May 24 18:56 SSE 13 10 Clear CLR 58 48     70%     30.02 30.07      
May 24 17:56   10 Clear CLR 59 48     67%     30.02 30.06      
May 24 16:56 S 16 10 Clear CLR 60 48     64%     30.03 30.08      
May 24 15:56 S 15 10 Clear CLR 61 48     62%     30.04 30.09      
May 24 14:56 SSE 14 10 Clear CLR 61 48     62%     30.05 30.1      
May 24 13:56 S 14 10 Clear CLR 61 50     67%     30.06 30.11      
May 24 12:56 SSE 11 10 Clear CLR 63 48     58%     30.07 30.11      
May 24 11:56 WNW 7 10 Mostly Clear FEW060 65 38     37%     30.09 30.13      
May 24 10:56   10 Mostly Cloudy SCT045 SCT055 BKN070 62 47     58%     30.09 30.14      
May 24 09:56 SSE 10 10 Clear CLR 57 48     72%     30.1 30.14      
May 24 09:23 SSE 6 10 Partly Cloudy SCT014 55 48     77%     30.11        
May 24 08:56 5 10 Cloudy OVC012 53 47     80%     30.12 30.16      
May 24 07:56 SSW 7 10 Cloudy OVC007 50 47     89% 47   30.11 30.16      
May 24 07:38 S 8 10 Cloudy OVC007 50 46     87% 47   30.11        
May 24 06:56 SSE 8 10 Cloudy OVC005 48 47     96% 44   30.1 30.14      
May 24 06:30 S 7 10 Mostly Cloudy BKN005 BKN027 48 46     93% 45   30.08        
May 24 06:21 SSE 7 10 Partly Cloudy FEW005 SCT022 SCT027 48 46     93% 45   30.08        
May 24 05:56 SSE 7 10 Cloudy BKN016 OVC021 48 47     96% 45   30.06 30.11      
May 24 05:22 S 3 10 Cloudy OVC010 48 46     93% 47   30.05        
May 24 05:13 Calm 10 Cloudy BKN008 OVC023 48 46     93%     30.05        
May 24 05:04 Calm 10 Cloudy SCT008 OVC023 48 46     93%     30.04        
May 24 04:56 SE 7 10 Cloudy OVC023 47 46     97% 44   30.04 30.08      
May 24 04:38 Calm 10 Cloudy BKN021 BKN035 OVC045 46 45     93%     30.03        
May 24 04:08 Calm 10 Cloudy FEW021 SCT029 OVC045 48 46     93%     30.02        
May 24 03:56 Calm 10 Cloudy SCT021 BKN029 OVC047 48 47     96%     30.02 30.06      
May 24 03:23 Calm 10 Mostly Cloudy BKN019 BKN048 48 46     93%     30.03        
May 24 02:56 Calm 10 Mostly Cloudy BKN055 47 46     97%     30.03 30.07      
May 24 01:56 NNE 3 10 Clear CLR 50 47     89% 49   30.02 30.06      
May 24 00:56 Calm 10 Mostly Clear FEW070 50 46     86%     30.02 30.06      
May 23 23:56 NE 3 10 Mostly Cloudy BKN085 57 44     62%     30.01 30.05      
May 23 22:56 ENE 6 10 Cloudy BKN075 OVC085 58 45     62%     30 30.04      
May 23 21:56 NNE 8 10 Mostly Cloudy BKN085 60 45     57%     29.98 30.02      
May 23 20:56 ENE 7 10 Clear CLR 61 49     64%     29.96 30      
May 23 19:56 ENE 8 10 Clear CLR 64 51     63%     29.93 29.97     0
May 23 18:56   10 Clear CLR 71 43     36%   70 29.89 29.93      
May 23 17:56 N 14 10 Clear CLR 73 48     41%   72 29.86 29.89      
May 23 16:56   10 Clear CLR 76 49     39%   75 29.83 29.86   0  
May 23 16:14   10 Partly Cloudy FEW065 SCT080 SCT100 75 54     47%   75 29.81        
May 23 15:56   10 Partly Cloudy SCT110 78 51     39%   77 29.79 29.83 0    
May 23 14:56   10 Mostly Cloudy FEW085 BKN120 79 47     32%   78 29.78 29.81      
May 23 13:56 WNW 10 10 Partly Cloudy SCT070 SCT095 78 52     40%   77 29.78 29.82      
May 23 12:56   10 Clear CLR 75 52     45%   74 29.81 29.84      
May 23 11:56 W 10 10 Clear CLR 73 54     51%   72 29.82 29.86      
May 23 10:56 NW 8 10 Clear CLR 69 54     59%     29.84 29.88      
May 23 09:56 NNW 10 10 Clear CLR 65 53     65%     29.86 29.9      
May 23 09:38 NW 9 10 Partly Cloudy SCT027 64 54     68%     29.86        
May 23 09:24   10 Mostly Cloudy BKN027 64 54     68%     29.86        
May 23 08:56 N 9 10 Mostly Clear FEW025 63 52     67%     29.86 29.9      
May 23 07:56 NNW 8 10 Clear CLR 60 54     80%     29.86 29.9     0
May 23 06:56 Calm 10 Clear CLR 55 52     89%     29.85 29.9      
May 23 05:56 Calm 10 Mostly Clear FEW042 52 50     93%     29.85 29.89 0    
May 23 03:56 Calm 10 Cloudy BKN060 BKN070 OVC090 53 50     89%     29.84 29.88      
May 23 02:56 S 5 10 Cloudy OVC037 54 50     86%     29.86 29.9      
May 23 01:56 S 5 10 Cloudy BKN036 BKN046 OVC065 54 51     90%     29.87 29.91 0   0
May 23 00:56 SSW 3 10 Cloudy OVC044 54 51     90%     29.88 29.92      
May 22 23:56 S 8 10 Cloudy OVC048 55 52     89%     29.9 29.94      
May 22 22:56 SE 6 10 Cloudy OVC050 54 53     97%     29.92 29.96 0 0  
May 22 21:56 SSE 6 10 Light Rain FEW034 OVC055 55 53     93%     29.96 30 0    
May 22 20:56 S 3 10 Cloudy OVC065 58 55     90%     29.98 30.02      
May 22 19:56 S 5 10 Cloudy SCT036 BKN043 OVC070 58 56     93%     30 30.04 0   0
May 22 18:56 S 3 10 Light Rain BKN080 OVC090 61 54     78%     30.02 30.06 0    
May 22 17:56 SSW 7 10 Light Rain FEW065 OVC075 63 52     67%     30.04   0    
May 22 16:56 SSW 9 10 Light Rain OVC075 64 52     65%     30.06   0 0  
May 15 08:56 Calm 10 Mostly Cloudy BKN100 61 53     75%     29.77        
May 15 05:56 Calm 10 Clear CLR 45 44     97%     29.79 29.84      
May 15 03:03 SSE 6 1.75 Fog/Mist CLR 46 46     100% 43   29.83        
May 14 19:56 SSE 8 10 Clear CLR 58 51     78%     29.83 29.88     0
May 14 18:56 S 10 10 Clear CLR 61 52     72%     29.82 29.87      
May 13 15:56 S 15 10 Clear CLR 63 36     37%     30.11 30.16      
May 12 16:56 SSE 13 10 Clear CLR 55 30     38%     30.09 30.14      
May 12 08:56 5 10 Clear CLR 51 28     41%     30.24 30.29      
May 12 01:56 Calm 10 Clear CLR 34 27     75%     30.18 30.23      
May 11 22:56 N 3 10 Clear CLR 46 25     43% 45   30.15        
May 11 20:56 N 8 10 Clear CLR 51 19     28%     30.09 30.14      
May 11 13:56 N 16 10 Clear CLR 59 27     29%     29.95 30      
Jun 11 23:56 Calm 10 Clear CLR 75 61     62%   75 29.87 29.9      
Jun 11 19:56 SW 8 10 Clear   85 61     45%   85 29.8 29.82      
Jun 11 12:56   10 Clear CLR 87 61     42%   87 29.81 29.84      
Jun 11 11:56 SW 11 10 Clear   84 62     48%   85 29.85 29.88      
Jun 11 10:56 S 13 10 Clear   82 64     55%   84 29.87 29.9      
Jun 11 08:56 SW 9 10 Clear CLR 77 62     60%   77 29.9 29.94      
Jun 10 04:56 Calm 10 Clear CLR 51 50     96%     29.86 29.9      
Jun 09 21:56 WSW 6 10 Clear CLR 66 52     61%     29.69 29.73      
Jun 09 13:56 Calm 10 Rain   57 51     81%     29.63   0   0
Jun 09 12:56 WNW 3 10 Light Rain FEW041 BKN065 OVC075 61 46     58%     29.64 29.68 0    
Jun 09 05:56 Calm 10 Mostly Clear FEW120 50 47     89%     29.71 29.75      
Jun 08 19:56 SSE 8 10 Clear CLR 63 42     46%     29.9 29.94      
Notice The following observation data may not be complete
Jun 06 09:06   10 Light Rain            %         0    
Jun 06 04:56 NNE 7 10 Light Rain FEW019 OVC060 49 46     90% 46   29.93 29.98 0 0  
Jun 06 00:56 NE 7 10 Cloudy OVC055 50 46     86% 47   29.96 30.01